Date String (YYYY-MM-DD hh:mm:ss) UTC,Instrument flags,absolute air pressure of the measurement (hPa),sample flow rate (lpm),inlet stack bypass flow (lpm),air temperature of the measurement (°C),ambient temperature measured by the external sensor (°C),aerosol sample conditioner tube jacket temperature (°C),OPC LED temperature (°C),internal box temperature (°C),relative humidity of the measurement (%),span deviation,mass concentration of particles derived from Lorenz-Mie calculation of OPC scattering (μg/m³),mass concentration of particles derived from Lorenz-Mie calculation of OPC scattering (μg/m³),mass concentration of particles derived from Lorenz-Mie calculation of OPC scattering (μg/m³)
DateTimeUTC,F1_M11,P_M11,Q1_M11,Q2_M11,T1_M11,T2_M11,T3_M11,T4_M11,T5_M11,U1_M11,ZSPAN_M11,X0_M11,X2_M11,X1_M11
2024-02-23 16:00:00,SystemResetWarning,0833.0,4.98,000.00,018.6,018.2,000.0,026.9,020.2,11.8,0000.0,0000.91,0000.55,0000.45
2024-02-23 16:01:00,SystemResetWarning,0832.8,5.02,000.00,018.6,018.2,000.0,026.9,020.2,11.3,0000.0,0000.88,0000.54,0000.45
2024-02-23 16:02:00,SystemResetWarning,0832.7,5.00,000.00,018.6,018.2,000.0,026.9,020.2,11.2,0000.0,0000.85,0000.54,0000.46
2024-02-23 16:03:00,SystemResetWarning,0832.8,4.99,000.00,018.6,018.2,000.0,026.9,020.2,12.1,0000.0,0000.86,0000.55,0000.46
2024-02-23 16:04:00,SystemResetWarning,0833.0,4.99,000.00,018.7,018.2,000.0,026.9,020.2,12.0,0000.0,0000.82,0000.54,0000.46
2024-02-23 16:05:00,SystemResetWarning,0833.1,5.00,000.00,018.7,018.2,000.0,026.9,020.3,12.9,0000.0,0000.82,0000.54,0000.46
2024-02-23 16:06:00,SystemResetWarning,0832.9,5.02,000.00,018.7,018.2,000.0,026.9,020.3,13.7,0000.0,0000.83,0000.56,0000.46
2024-02-23 16:07:00,SystemResetWarning,0832.9,4.99,000.00,018.7,018.3,000.0,026.9,020.3,14.1,0000.0,0000.92,0000.58,0000.47
2024-02-23 16:08:00,SystemResetWarning,0832.9,4.99,000.00,018.7,018.3,000.0,026.9,020.4,14.7,0000.0,0000.97,0000.59,0000.47
2024-02-23 16:09:00,SystemResetWarning,0833.1,5.01,000.00,018.7,018.3,000.0,027.0,020.4,14.7,0000.0,0000.96,0000.59,0000.47
2024-02-23 16:10:00,SystemResetWarning,0833.0,5.01,000.00,018.7,018.3,000.0,027.0,020.4,14.9,0000.0,0000.98,0000.59,0000.47
2024-02-23 16:11:00,SystemResetWarning,0833.0,5.00,000.00,018.7,018.3,000.0,027.0,020.4,15.9,0000.0,0000.96,0000.58,0000.47
2024-02-23 16:12:00,SystemResetWarning,0833.0,4.99,000.00,018.7,018.3,000.0,027.0,020.4,16.4,0000.0,0000.95,0000.57,0000.47
2024-02-23 16:13:00,SystemResetWarning,0833.1,5.00,000.00,018.7,018.3,000.0,027.0,020.4,15.9,0000.0,0000.99,0000.59,0000.47
2024-02-23 16:14:00,SystemResetWarning,0833.2,5.01,000.00,018.8,018.4,000.0,027.0,020.5,15.4,0000.0,0001.04,0000.63,0000.50
2024-02-23 16:15:00,SystemResetWarning,0833.1,5.00,000.00,018.8,018.4,000.0,027.0,020.4,14.9,0000.0,0001.13,0000.68,0000.54
2024-02-23 16:16:00,SystemResetWarning,0833.0,5.01,000.00,018.8,018.4,000.0,027.0,020.4,15.3,0000.0,0001.43,0000.76,0000.58
2024-02-23 16:17:00,SystemResetWarning,0833.1,5.00,000.00,018.8,018.4,000.0,027.0,020.5,15.9,0000.0,0001.70,0000.86,0000.65
2024-02-23 16:18:00,SystemResetWarning,0833.1,4.99,000.00,018.8,018.4,000.0,027.1,020.5,14.9,0000.0,0001.85,0000.96,0000.73
2024-02-23 16:19:00,SystemResetWarning,0833.1,4.99,000.00,018.8,018.4,000.0,027.1,020.5,15.0,0000.0,0002.11,0001.06,0000.81
2024-02-23 16:20:00,SystemResetWarning,0833.0,5.00,000.00,018.8,018.4,000.0,027.1,020.5,15.3,0000.0,0002.62,0001.22,0000.91
2024-02-23 16:21:00,SystemResetWarning,0833.3,5.00,000.00,018.8,018.4,000.0,027.1,020.6,15.1,0000.0,0003.00,0001.37,0001.01
2024-02-23 16:22:00,SystemResetWarning,0833.0,5.01,000.00,018.8,018.4,000.0,027.1,020.6,14.7,0000.0,0003.40,0001.56,0001.12
2024-02-23 16:23:00,SystemResetWarning,0833.1,5.00,000.00,018.9,018.4,000.0,027.1,020.6,14.8,0000.0,0003.69,0001.75,0001.26
2024-02-23 16:24:00,SystemResetWarning,0833.1,5.01,000.00,018.9,018.5,000.0,027.1,020.6,14.3,0000.0,0003.82,0001.87,0001.39
2024-02-23 16:25:00,SystemResetWarning,0833.1,4.99,000.00,018.9,018.5,000.0,027.1,020.6,14.4,0000.0,0004.18,0001.97,0001.48
2024-02-23 16:26:00,SystemResetWarning,0833.1,5.00,000.00,018.9,018.5,000.0,027.2,020.6,14.7,0000.0,0004.95,0002.07,0001.58
2024-02-23 16:27:00,SystemResetWarning,0833.2,5.01,000.00,018.9,018.5,000.0,027.2,020.6,15.4,0000.0,0004.91,0002.13,0001.65
2024-02-23 16:28:00,SystemResetWarning,0833.1,5.01,000.00,018.9,018.5,000.0,027.2,020.7,16.1,0000.0,0004.66,0002.16,0001.70
2024-02-23 16:29:00,SystemResetWarning,0833.1,5.00,000.00,018.9,018.5,000.0,027.2,020.7,16.2,0000.0,0004.65,0002.21,0001.74
2024-02-23 16:30:00,SystemResetWarning,0833.2,5.00,000.00,018.9,018.5,000.0,027.2,020.7,16.6,0000.0,0004.59,0002.23,0001.77
2024-02-23 16:31:00,SystemResetWarning,0833.1,5.00,000.00,018.9,018.5,000.0,027.2,020.7,15.9,0000.0,0004.29,0002.24,0001.78
2024-02-23 16:32:00,SystemResetWarning,0833.1,4.99,000.00,019.0,018.5,000.0,027.2,020.7,15.6,0000.0,0004.10,0002.20,0001.78
2024-02-23 16:33:00,SystemResetWarning,0833.1,5.00,000.00,019.0,018.5,000.0,027.2,020.7,15.8,0000.0,0004.02,0002.15,0001.77
2024-02-23 16:34:00,SystemResetWarning,0833.2,5.00,000.00,019.0,018.6,000.0,027.2,020.7,15.5,0000.0,0003.87,0002.07,0001.74
2024-02-23 16:35:00,SystemResetWarning,0833.1,5.00,000.00,019.0,018.6,000.0,027.3,020.7,14.8,0000.0,0003.77,0002.00,0001.67
2024-02-23 16:36:00,SystemResetWarning,0833.1,5.00,000.00,019.0,018.6,000.0,027.3,020.7,14.4,0000.0,0003.73,0001.95,0001.61
2024-02-23 16:37:00,SystemResetWarning,0833.2,5.00,000.00,019.0,018.6,000.0,027.3,020.8,15.2,0000.0,0002.84,0001.87,0001.57
2024-02-23 16:38:00,SystemResetWarning,0833.2,5.00,000.00,019.0,018.6,000.0,027.3,020.8,15.3,0000.0,0002.76,0001.84,0001.53
2024-02-23 16:39:00,SystemResetWarning,0833.1,5.00,000.00,019.1,018.6,000.0,027.3,020.8,15.6,0000.0,0002.91,0001.82,0001.51
2024-02-23 16:40:00,SystemResetWarning,0833.3,5.00,000.00,019.1,018.7,000.0,027.3,020.8,15.8,0000.0,0003.67,0001.75,0001.47
2024-02-23 16:41:00,SystemResetWarning,0833.0,5.00,000.00,019.1,018.7,000.0,027.3,020.8,14.9,0000.0,0005.12,0001.68,0001.43
2024-02-23 16:42:00,SystemResetWarning,0833.1,5.00,000.00,019.1,018.7,000.0,027.3,020.8,14.7,0000.0,0005.05,0001.63,0001.39
2024-02-23 16:43:00,SystemResetWarning,0833.0,5.00,000.00,019.1,018.7,000.0,027.4,020.8,13.8,0000.0,0005.13,0001.61,0001.37
2024-02-23 16:44:00,SystemResetWarning,0833.3,5.00,000.00,019.1,018.7,000.0,027.4,020.9,13.8,0000.0,0004.82,0001.55,0001.34
2024-02-23 16:45:00,SystemResetWarning,0833.1,5.00,000.00,019.1,018.7,000.0,027.4,020.9,14.0,0000.0,0004.80,0001.52,0001.32
2024-02-23 16:46:00,SystemResetWarning,0832.9,5.00,000.00,019.1,018.7,000.0,027.4,020.9,14.7,0000.0,0004.89,0001.53,0001.32
2024-02-23 16:47:00,SystemResetWarning,0833.0,5.00,000.00,019.2,018.7,000.0,027.4,020.9,14.7,0000.0,0005.08,0001.55,0001.32
2024-02-23 16:48:00,SystemResetWarning,0833.0,5.00,000.00,019.2,018.8,000.0,027.4,020.9,13.5,0000.0,0005.72,0001.57,0001.30
2024-02-23 16:49:00,SystemResetWarning,0833.0,5.00,000.00,019.2,018.8,000.0,027.4,020.9,13.3,0000.0,0006.82,0001.53,0001.28
2024-02-23 16:50:00,SystemResetWarning,0833.0,5.00,000.00,019.2,018.8,000.0,027.5,021.0,14.2,0000.0,0006.65,0001.51,0001.25
2024-02-23 16:51:00,SystemResetWarning,0833.0,5.00,000.00,019.2,018.9,000.0,027.5,021.0,14.6,0000.0,0007.27,0001.48,0001.24
2024-02-23 16:52:00,SystemResetWarning,0833.0,5.00,000.00,019.2,018.9,000.0,027.5,021.0,15.1,0000.0,0005.84,0001.47,0001.22
2024-02-23 16:53:00,SystemResetWarning,0832.9,5.00,000.00,019.2,018.9,000.0,027.5,021.0,15.4,0000.0,0005.75,0001.42,0001.19
2024-02-23 16:54:00,SystemResetWarning,0833.0,5.01,000.00,019.3,018.9,000.0,027.5,021.0,15.5,0000.0,0006.54,0001.38,0001.17
2024-02-23 16:55:00,SystemResetWarning,0833.0,5.00,000.00,019.3,019.0,000.0,027.5,021.0,15.3,0000.0,0007.22,0001.37,0001.16
2024-02-23 16:56:00,SystemResetWarning,0833.0,5.00,000.00,019.3,019.0,000.0,027.5,021.0,15.2,0000.0,0007.15,0001.36,0001.15
2024-02-23 16:57:00,SystemResetWarning,0833.0,5.01,000.00,019.3,019.0,000.0,027.5,021.1,15.7,0000.0,0007.48,0001.32,0001.14
2024-02-23 16:58:00,SystemResetWarning,0833.0,5.01,000.00,019.3,019.0,000.0,027.6,021.1,16.0,0000.0,0007.42,0001.27,0001.12
2024-02-23 16:59:00,SystemResetWarning,0832.9,5.00,000.00,019.4,019.0,000.0,027.6,021.1,16.1,0000.0,0006.96,0001.23,0001.09
